Time,TemperatureF,DewpointF,PressureIn,WindDirection,WindDirectionDegrees,WindSpeedMPH,WindSpeedGustMPH,Humidity,HourlyPrecipIn,Conditions,Clouds,dailyrainin,SoftwareType,DateUTC
2013-11-30 00:08:00,27.6,14.0,30.74,NE,49,4.0,6.0,56,0.00,,,0.00,weatherlink.com 1.10,2013-11-30 05:08:00,
2013-11-30 00:23:00,27.5,14.0,30.73,North,356,3.0,6.0,57,0.00,,,0.00,weatherlink.com 1.10,2013-11-30 05:23:00,
2013-11-30 00:39:00,27.1,14.0,30.73,NNE,21,3.0,5.0,58,0.00,,,0.00,weatherlink.com 1.10,2013-11-30 05:39:00,
2013-11-30 00:53:00,27.0,14.0,30.74,NNE,18,2.0,7.0,59,0.00,,,0.00,weatherlink.com 1.10,2013-11-30 05:53:00,
2013-11-30 01:09:00,26.9,14.0,30.74,North,351,6.0,9.0,59,0.00,,,0.00,weatherlink.com 1.10,2013-11-30 06:09:00,
2013-11-30 01:24:00,26.9,14.0,30.74,North,1,3.0,8.0,59,0.00,,,0.00,weatherlink.com 1.10,2013-11-30 06:24:00,
2013-11-30 01:40:00,26.8,14.0,30.75,NNW,329,3.0,6.0,58,0.00,,,0.00,weatherlink.com 1.10,2013-11-30 06:40:00,
2013-11-30 01:54:00,26.6,14.0,30.75,North,359,1.0,5.0,59,0.00,,,0.00,weatherlink.com 1.10,2013-11-30 06:54:00,
2013-11-30 02:09:00,26.3,12.0,30.75,NNW,340,1.0,4.0,55,0.00,,,0.00,weatherlink.com 1.10,2013-11-30 07:09:00,
2013-11-30 02:25:00,26.3,12.0,30.75,NE,39,0.0,5.0,56,0.00,,,0.00,weatherlink.com 1.10,2013-11-30 07:25:00,
2013-11-30 02:39:00,26.4,15.0,30.74,North,360,2.0,5.0,63,0.00,,,0.00,weatherlink.com 1.10,2013-11-30 07:39:00,
2013-11-30 02:55:00,26.5,16.0,30.74,NNE,12,2.0,5.0,66,0.00,,,0.00,weatherlink.com 1.10,2013-11-30 07:55:00,
2013-11-30 03:09:00,26.7,17.0,30.74,North,349,2.0,8.0,67,0.00,,,0.00,weatherlink.com 1.10,2013-11-30 08:09:00,
2013-11-30 03:25:00,26.7,17.0,30.74,North,359,2.0,8.0,68,0.00,,,0.00,weatherlink.com 1.10,2013-11-30 08:25:00,
2013-11-30 03:39:00,26.6,18.0,30.74,North,359,1.0,5.0,71,0.00,,,0.00,weatherlink.com 1.10,2013-11-30 08:39:00,
2013-11-30 03:55:00,26.6,19.0,30.74,NNW,345,2.0,6.0,73,0.00,,,0.00,weatherlink.com 1.10,2013-11-30 08:55:00,
2013-11-30 04:09:00,26.5,20.0,30.74,NNE,30,2.0,6.0,75,0.00,,,0.00,weatherlink.com 1.10,2013-11-30 09:09:00,
2013-11-30 04:25:00,26.6,19.0,30.74,North,359,0.0,6.0,74,0.00,,,0.00,weatherlink.com 1.10,2013-11-30 09:25:00,
2013-11-30 04:39:00,26.4,20.0,30.75,North,354,1.0,5.0,76,0.00,,,0.00,weatherlink.com 1.10,2013-11-30 09:39:00,
2013-11-30 04:55:00,26.7,20.0,30.75,North,1,6.0,10.0,77,0.00,,,0.00,weatherlink.com 1.10,2013-11-30 09:55:00,
2013-11-30 05:11:00,26.7,20.0,30.75,North,349,1.0,7.0,77,0.00,,,0.00,weatherlink.com 1.10,2013-11-30 10:11:00,
2013-11-30 05:25:00,26.5,21.0,30.76,NNW,328,0.0,7.0,79,0.00,,,0.00,weatherlink.com 1.10,2013-11-30 10:25:00,
2013-11-30 05:40:00,26.3,21.0,30.76,North,6,0.0,5.0,80,0.00,,,0.00,weatherlink.com 1.10,2013-11-30 10:40:00,
2013-11-30 05:55:00,26.2,21.0,30.76,NNW,330,3.0,6.0,80,0.00,,,0.00,weatherlink.com 1.10,2013-11-30 10:55:00,
2013-11-30 06:11:00,26.2,21.0,30.76,North,359,4.0,6.0,81,0.00,,,0.00,weatherlink.com 1.10,2013-11-30 11:11:00,
2013-11-30 06:25:00,25.8,21.0,30.77,North,358,0.0,2.0,81,0.00,,,0.00,weatherlink.com 1.10,2013-11-30 11:25:00,
2013-11-30 06:41:00,24.8,20.0,30.77,NW,323,1.0,5.0,83,0.00,,,0.00,weatherlink.com 1.10,2013-11-30 11:41:00,
2013-11-30 06:57:00,24.2,20.0,30.77,NW,323,1.0,2.0,84,0.00,,,0.00,weatherlink.com 1.10,2013-11-30 11:57:00,
2013-11-30 07:10:00,24.0,20.0,30.78,NW,323,0.0,2.0,86,0.00,,,0.00,weatherlink.com 1.10,2013-11-30 12:10:00,
2013-11-30 07:26:00,23.2,20.0,30.78,NW,323,0.0,1.0,87,0.00,,,0.00,weatherlink.com 1.10,2013-11-30 12:26:00,
2013-11-30 07:42:00,24.2,21.0,30.78,NW,323,1.0,2.0,88,0.00,,,0.00,weatherlink.com 1.10,2013-11-30 12:42:00,
2013-11-30 07:56:00,26.7,24.0,30.78,NW,319,1.0,5.0,88,0.00,,,0.00,weatherlink.com 1.10,2013-11-30 12:56:00,
2013-11-30 08:11:00,28.5,24.0,30.78,North,8,2.0,5.0,84,0.00,,,0.00,weatherlink.com 1.10,2013-11-30 13:11:00,
2013-11-30 08:26:00,29.6,24.0,30.78,NNW,345,4.0,6.0,81,0.00,,,0.00,weatherlink.com 1.10,2013-11-30 13:26:00,
2013-11-30 08:42:00,30.4,24.0,30.77,North,360,3.0,5.0,78,0.00,,,0.00,weatherlink.com 1.10,2013-11-30 13:42:00,
2013-11-30 08:56:00,31.0,24.0,30.77,NE,50,2.0,7.0,74,0.00,,,0.00,weatherlink.com 1.10,2013-11-30 13:56:00,
2013-11-30 09:11:00,32.1,23.0,30.78,North,6,3.0,6.0,69,0.00,,,0.00,weatherlink.com 1.10,2013-11-30 14:11:00,
2013-11-30 09:27:00,32.9,22.0,30.78,East,94,1.0,7.0,65,0.00,,,0.00,weatherlink.com 1.10,2013-11-30 14:27:00,
2013-11-30 09:43:00,33.6,22.0,30.77,NNW,348,1.0,6.0,63,0.00,,,0.00,weatherlink.com 1.10,2013-11-30 14:43:00,
2013-11-30 09:57:00,34.1,22.0,30.77,NNE,15,2.0,7.0,61,0.00,,,0.00,weatherlink.com 1.10,2013-11-30 14:57:00,
2013-11-30 10:13:00,34.9,22.0,30.77,ENE,77,0.0,7.0,59,0.00,,,0.00,weatherlink.com 1.10,2013-11-30 15:13:00,
2013-11-30 10:27:00,35.6,23.0,30.76,ESE,108,0.0,7.0,60,0.00,,,0.00,weatherlink.com 1.10,2013-11-30 15:27:00,
2013-11-30 10:42:00,36.1,22.0,30.75,NNE,25,5.0,7.0,58,0.00,,,0.00,weatherlink.com 1.10,2013-11-30 15:42:00,
2013-11-30 10:58:00,35.2,22.0,30.75,NE,56,2.0,5.0,60,0.00,,,0.00,weatherlink.com 1.10,2013-11-30 15:58:00,
2013-11-30 11:13:00,35.9,22.0,30.74,ENE,73,3.0,4.0,57,0.00,,,0.00,weatherlink.com 1.10,2013-11-30 16:13:00,
2013-11-30 11:27:00,36.8,22.0,30.73,ENE,76,3.0,7.0,56,0.00,,,0.00,weatherlink.com 1.10,2013-11-30 16:27:00,
2013-11-30 11:43:00,37.3,23.0,30.73,ESE,120,1.0,5.0,57,0.00,,,0.00,weatherlink.com 1.10,2013-11-30 16:43:00,
2013-11-30 11:57:00,37.6,23.0,30.72,East,89,0.0,7.0,55,0.00,,,0.00,weatherlink.com 1.10,2013-11-30 16:57:00,
2013-11-30 12:12:00,35.8,22.0,30.71,North,1,3.0,5.0,57,0.00,,,0.00,weatherlink.com 1.10,2013-11-30 17:12:00,
2013-11-30 12:28:00,35.3,22.0,30.71,ENE,58,2.0,4.0,59,0.00,,,0.00,weatherlink.com 1.10,2013-11-30 17:28:00,
2013-11-30 12:44:00,35.3,21.0,30.70,NE,55,0.0,3.0,57,0.00,,,0.00,weatherlink.com 1.10,2013-11-30 17:44:00,
2013-11-30 12:58:00,36.8,23.0,30.70,NE,45,1.0,8.0,57,0.00,,,0.00,weatherlink.com 1.10,2013-11-30 17:58:00,
2013-11-30 13:13:00,38.2,22.0,30.69,ENE,59,2.0,7.0,53,0.00,,,0.00,weatherlink.com 1.10,2013-11-30 18:13:00,
2013-11-30 13:28:00,38.5,23.0,30.68,East,79,2.0,6.0,53,0.00,,,0.00,weatherlink.com 1.10,2013-11-30 18:28:00,
2013-11-30 13:44:00,37.9,21.0,30.68,NE,55,0.0,3.0,51,0.00,,,0.00,weatherlink.com 1.10,2013-11-30 18:44:00,
2013-11-30 13:58:00,37.2,22.0,30.68,SSW,203,0.0,6.0,54,0.00,,,0.00,weatherlink.com 1.10,2013-11-30 18:58:00,
2013-11-30 14:14:00,36.8,22.0,30.67,SSW,203,0.0,6.0,55,0.00,,,0.00,weatherlink.com 1.10,2013-11-30 19:14:00,
2013-11-30 14:28:00,36.3,22.0,30.67,SSW,203,2.0,4.0,56,0.00,,,0.00,weatherlink.com 1.10,2013-11-30 19:28:00,
2013-11-30 14:44:00,35.9,22.0,30.66,ESE,120,1.0,4.0,57,0.00,,,0.00,weatherlink.com 1.10,2013-11-30 19:44:00,
2013-11-30 15:05:00,35.6,22.0,30.66,ESE,118,2.0,2.0,58,0.00,,,0.00,weatherlink.com 1.10,2013-11-30 20:05:00,
2013-11-30 15:14:00,35.3,22.0,30.65,ESE,118,3.0,3.0,58,0.00,,,0.00,weatherlink.com 1.10,2013-11-30 20:14:00,
2013-11-30 15:28:00,34.7,22.0,30.64,ESE,108,1.0,2.0,60,0.00,,,0.00,weatherlink.com 1.10,2013-11-30 20:28:00,
2013-11-30 15:44:00,33.9,22.0,30.65,SE,133,0.0,2.0,61,0.00,,,0.00,weatherlink.com 1.10,2013-11-30 20:44:00,
2013-11-30 16:14:00,31.4,22.0,30.65,SE,133,0.0,1.0,67,0.00,,,0.00,weatherlink.com 1.10,2013-11-30 21:14:00,
2013-11-30 16:30:00,29.7,21.0,30.64,SE,133,0.0,1.0,71,0.00,,,0.00,weatherlink.com 1.10,2013-11-30 21:30:00,
2013-11-30 16:44:00,28.9,21.0,30.64,SE,133,0.0,0.0,73,0.00,,,0.00,weatherlink.com 1.10,2013-11-30 21:44:00,
2013-11-30 17:00:00,28.3,21.0,30.64,SE,133,0.0,1.0,75,0.00,,,0.00,weatherlink.com 1.10,2013-11-30 22:00:00,
2013-11-30 17:14:00,28.1,21.0,30.63,SE,133,1.0,1.0,76,0.00,,,0.00,weatherlink.com 1.10,2013-11-30 22:14:00,
2013-11-30 17:30:00,28.0,22.0,30.62,SE,133,0.0,1.0,77,0.00,,,0.00,weatherlink.com 1.10,2013-11-30 22:30:00,
2013-11-30 17:46:00,27.6,22.0,30.62,SE,133,0.0,2.0,79,0.00,,,0.00,weatherlink.com 1.10,2013-11-30 22:46:00,
2013-11-30 18:05:00,27.7,22.0,30.62,SE,133,0.0,2.0,79,0.00,,,0.00,weatherlink.com 1.10,2013-11-30 23:05:00,
2013-11-30 18:15:00,28.4,23.0,30.61,SE,133,0.0,2.0,79,0.00,,,0.00,weatherlink.com 1.10,2013-11-30 23:15:00,
2013-11-30 18:30:00,28.9,23.0,30.61,SE,133,0.0,2.0,79,0.00,,,0.00,weatherlink.com 1.10,2013-11-30 23:30:00,
2013-11-30 18:45:00,29.2,23.0,30.60,SE,133,0.0,2.0,79,0.00,,,0.00,weatherlink.com 1.10,2013-11-30 23:45:00,
2013-11-30 19:04:00,29.0,24.0,30.60,SE,133,1.0,2.0,80,0.00,,,0.00,weatherlink.com 1.10,2013-12-01 00:04:00,
2013-11-30 19:15:00,28.9,24.0,30.59,SE,133,0.0,1.0,81,0.00,,,0.00,weatherlink.com 1.10,2013-12-01 00:15:00,
2013-11-30 19:31:00,28.6,24.0,30.59,SE,133,0.0,1.0,82,0.00,,,0.00,weatherlink.com 1.10,2013-12-01 00:31:00,
2013-11-30 19:45:00,28.5,24.0,30.58,SE,133,0.0,0.0,83,0.00,,,0.00,weatherlink.com 1.10,2013-12-01 00:45:00,
2013-11-30 20:05:00,28.7,25.0,30.57,SE,133,1.0,2.0,84,0.00,,,0.00,weatherlink.com 1.10,2013-12-01 01:05:00,
2013-11-30 20:16:00,28.9,25.0,30.56,SE,133,1.0,2.0,84,0.00,,,0.00,weatherlink.com 1.10,2013-12-01 01:16:00,
2013-11-30 20:31:00,29.2,25.0,30.56,SE,133,1.0,1.0,83,0.00,,,0.00,weatherlink.com 1.10,2013-12-01 01:31:00,
2013-11-30 20:46:00,29.2,25.0,30.55,SE,133,1.0,2.0,84,0.00,,,0.00,weatherlink.com 1.10,2013-12-01 01:46:00,
2013-11-30 21:05:00,29.4,26.0,30.55,ESE,119,0.0,2.0,85,0.00,,,0.00,weatherlink.com 1.10,2013-12-01 02:05:00,
2013-11-30 21:16:00,30.5,26.0,30.54,ESE,119,1.0,2.0,84,0.00,,,0.00,weatherlink.com 1.10,2013-12-01 02:16:00,
2013-11-30 21:31:00,29.4,25.0,30.54,ESE,119,0.0,2.0,84,0.00,,,0.00,weatherlink.com 1.10,2013-12-01 02:31:00,
2013-11-30 21:46:00,29.0,25.0,30.53,ESE,118,0.0,2.0,86,0.00,,,0.00,weatherlink.com 1.10,2013-12-01 02:46:00,
2013-11-30 22:05:00,30.1,27.0,30.52,SE,146,1.0,2.0,87,0.00,,,0.00,weatherlink.com 1.10,2013-12-01 03:05:00,
2013-11-30 22:17:00,34.1,30.0,30.52,SE,145,0.0,3.0,85,0.00,,,0.00,weatherlink.com 1.10,2013-12-01 03:17:00,
2013-11-30 22:31:00,36.9,31.0,30.51,South,179,2.0,5.0,78,0.00,,,0.00,weatherlink.com 1.10,2013-12-01 03:31:00,
2013-11-30 22:47:00,38.0,30.0,30.50,South,181,1.0,5.0,74,0.00,,,0.00,weatherlink.com 1.10,2013-12-01 03:47:00,
2013-11-30 23:05:00,38.4,30.0,30.51,South,169,0.0,3.0,73,0.00,,,0.00,weatherlink.com 1.10,2013-12-01 04:05:00,
2013-11-30 23:17:00,39.2,31.0,30.50,South,181,0.0,5.0,72,0.00,,,0.00,weatherlink.com 1.10,2013-12-01 04:17:00,
2013-11-30 23:33:00,39.5,31.0,30.49,SSW,205,0.0,5.0,71,0.00,,,0.00,weatherlink.com 1.10,2013-12-01 04:33:00,
2013-11-30 23:47:00,39.6,31.0,30.49,SSE,165,1.0,4.0,71,0.00,,,0.00,weatherlink.com 1.10,2013-12-01 04:47:00,